sat.trackr.live / text

‹ back to catalog

STARLINK-31351

NORAD 58972 · 2024-031H

PAYLOAD ACTIVE UNKNOWN

§ Identity

Operator
Country
US
Launch date
2024-02-15
Launch site
AFWTR
Launch vehicle
Mass (kg)
RCS (m²)

Purposes: comms

External: N2YO · Heavens-Above · Gunter

§ Orbital elements

Epoch: 2026-09-20T21:57:45.024480Z

Period
93.85 min
Inclination
53.1579°
Eccentricity
0.0001181
Mean motion
15.34402393 rev/d
Perigee alt
461.9 km
Apogee alt
463.5 km
Semi-major
6,840.8 km
B*
-2.3690e-5
RAAN
107.7228°
Arg perigee
90.5895°
Mean anomaly
269.5243°
Rev number
14,644

§ Raw data

STARLINK-313511 58972U 24031H   26263.91510445 -.00001177  00000+0 -23690-4 0  99902 58972  53.1579 107.7228 0001181  90.5895 269.5243 15.34402393146441

JSON: /api/v1/satellites/58972 · /tle

For live sub-satellite position, see the globe view (requires WebGL).

§ Visibility from observer

Set your observer location to see the next 7 days of passes ≥ 10°. The values pass through the URL so the page stays shareable.

No JS? Fill the form by hand. The geolocation button needs JavaScript.